Location: Palomar Observatory
(33.3560°N, 116.8630°W)
Time: 00:52:08
(UTC-07:00)

Iridium 57 - Visible Passes

Search period start: 24 April 2014 00:00
Search period end: 04 May 2014 00:00
Orbit: 776 x 779 km, 86.4° (Epoch: 23 April)

Date Brightness Start Highest point End Pass type
(mag) Time Alt. Az. Time Alt. Az. Time Alt. Az.
24 Apr 8.4 01:00:09 10° NNE 01:00:35 12° NNE 01:00:35 12° NNE visible
25 Apr 8.2 02:07:19 10° NNW 02:07:38 12° NNW 02:07:38 12° NNW visible
26 Apr 8.2 01:33:27 10° N 01:34:12 14° N 01:34:12 14° N visible
27 Apr 8.2 00:59:59 10° N 01:00:47 14° N 01:00:47 14° N visible
28 Apr 8.3 00:26:58 10° NNE 00:27:22 12° NNE 00:27:22 12° NNE visible
29 Apr 8.2 01:33:41 10° NNW 01:34:25 14° NNW 01:34:25 14° NNW visible
30 Apr 8.1 00:59:59 10° N 01:01:00 16° N 01:01:00 16° N visible
01 May 8.1 00:26:40 10° NNE 00:27:36 15° NNE 00:27:36 15° NNE visible
01 May 8.3 23:53:53 10° NNE 23:54:12 11° NNE 23:54:12 11° NNE visible
02 May 8.2 01:34:04 10° NNW 01:34:40 13° NNW 01:34:40 13° NNW visible
03 May 8.0 01:00:06 10° N 01:01:16 17° NNW 01:01:16 17° NNW visible
